Back to Top

Language: 

My Weather Underground Personal Weather Station Historical Data with Graphs...

Delerius Weather Station Historical Data
Daily Summary for September 16, 2017 Units:  Metric    English   Both
« Previous Day
Next Day »
Daily Weekly Monthly Yearly Custom
  High: Low: Average:
Temperature: 16.1 °C 8.8 °C 11.6 °C
Dew Point: 9.8 °C 7.2 °C 8.5 °C
Humidity: 93 % 58 % 82 %
Wind Speed: 12.9 km/h 0 km/h 7.9 km/h
Wind Gust: 29 km/h - -
Wind:- - WSW
Pressure: 1013.1 hPa 1010.7 hPa -
Precipitation: 0.51 mm    
Historical Graphs
 
 
Tabular Data for September 16, 2017
Time Temperature Dew Point Pressure Wind Wind Speed Wind Gust Humidity Rainfall Rate (Hourly) solar Conditions
00:02 10.1 °C 8.7 °C 1012.8 hPa NW 6.4 km/h 12.9 km/h 91 % 0 mm 0 W/m2
00:07 10.1 °C 8.7 °C 1012.8 hPa NW 6.4 km/h 12.9 km/h 91 % 0 mm 0 W/m2
00:12 10.1 °C 8.7 °C 1012.8 hPa WNW 6.4 km/h 11.3 km/h 91 % 0 mm 0 W/m2
00:17 10.2 °C 8.8 °C 1012.8 hPa WNW 4.8 km/h 11.3 km/h 91 % 0 mm 0 W/m2
00:27 10.2 °C 8.8 °C 1012.4 hPa WNW 6.4 km/h 12.9 km/h 91 % 0 mm 0 W/m2
00:32 10.2 °C 8.8 °C 1012.4 hPa WNW 6.4 km/h 11.3 km/h 91 % 0 mm 0 W/m2
00:37 10.3 °C 8.9 °C 1012.4 hPa NW 6.4 km/h 12.9 km/h 91 % 0 mm 0 W/m2
00:42 10.3 °C 8.9 °C 1012.4 hPa NW 6.4 km/h 12.9 km/h 91 % 0.25 mm 0 W/m2
00:47 10.3 °C 8.9 °C 1012.4 hPa NW 6.4 km/h 12.9 km/h 91 % 0.25 mm 0 W/m2
00:52 10.3 °C 8.9 °C 1012.4 hPa WNW 6.4 km/h 12.9 km/h 91 % 0.25 mm 0 W/m2
00:57 10.3 °C 8.9 °C 1012.4 hPa WNW 6.4 km/h 11.3 km/h 91 % 0.25 mm 0 W/m2
01:02 10.2 °C 8.8 °C 1012.4 hPa WNW 6.4 km/h 9.7 km/h 91 % 0.25 mm 0 W/m2
01:07 10.2 °C 8.8 °C 1012.4 hPa WNW 6.4 km/h 9.7 km/h 91 % 0.25 mm 0 W/m2
01:12 10.2 °C 8.8 °C 1012.4 hPa WNW 6.4 km/h 11.3 km/h 91 % 0.25 mm 0 W/m2
01:17 10.2 °C 8.8 °C 1012.4 hPa WNW 6.4 km/h 11.3 km/h 91 % 0.25 mm 0 W/m2
01:22 10.2 °C 8.9 °C 1012.4 hPa WNW 6.4 km/h 12.9 km/h 92 % 0.25 mm 0 W/m2
01:27 10.1 °C 8.8 °C 1012.4 hPa WNW 8 km/h 16.1 km/h 92 % 0.25 mm 0 W/m2
01:33 10.1 °C 8.8 °C 1012.4 hPa WNW 8 km/h 16.1 km/h 92 % 0.25 mm 0 W/m2
01:38 10.1 °C 8.8 °C 1012.4 hPa WNW 8 km/h 12.9 km/h 92 % 0.25 mm 0 W/m2
01:48 10.1 °C 8.7 °C 1012.4 hPa WNW 6.4 km/h 11.3 km/h 91 % 0 mm 0 W/m2
01:53 10.1 °C 8.8 °C 1012.4 hPa WNW 6.4 km/h 12.9 km/h 92 % 0 mm 0 W/m2
01:58 10.1 °C 8.8 °C 1012.4 hPa WNW 8 km/h 12.9 km/h 92 % 0 mm 0 W/m2
02:03 10.1 °C 8.8 °C 1012.1 hPa WNW 6.4 km/h 11.3 km/h 92 % 0 mm 0 W/m2
02:08 10.1 °C 8.8 °C 1012.1 hPa WNW 8 km/h 14.5 km/h 92 % 0 mm 0 W/m2
02:13 10.1 °C 8.8 °C 1012.1 hPa WNW 8 km/h 14.5 km/h 92 % 0 mm 0 W/m2
02:18 10.1 °C 8.8 °C 1012.1 hPa WNW 8 km/h 14.5 km/h 92 % 0 mm 0 W/m2
02:23 10.1 °C 8.8 °C 1012.1 hPa WNW 6.4 km/h 14.5 km/h 92 % 0 mm 0 W/m2
02:28 10 °C 8.8 °C 1012.1 hPa WNW 4.8 km/h 11.3 km/h 92 % 0 mm 0 W/m2
02:33 10 °C 8.8 °C 1012.1 hPa WNW 6.4 km/h 11.3 km/h 92 % 0 mm 0 W/m2
02:38 9.9 °C 8.7 °C 1012.1 hPa WNW 6.4 km/h 11.3 km/h 92 % 0 mm 0 W/m2
02:43 9.9 °C 8.7 °C 1012.1 hPa WNW 4.8 km/h 9.7 km/h 92 % 0 mm 0 W/m2
02:48 9.9 °C 8.7 °C 1012.1 hPa WNW 4.8 km/h 11.3 km/h 92 % 0 mm 0 W/m2
02:53 9.8 °C 8.6 °C 1012.1 hPa NW 6.4 km/h 12.9 km/h 92 % 0 mm 0 W/m2
02:58 9.8 °C 8.6 °C 1012.1 hPa NW 8 km/h 14.5 km/h 92 % 0 mm 0 W/m2
03:03 9.8 °C 8.6 °C 1012.1 hPa NW 8 km/h 14.5 km/h 92 % 0 mm 0 W/m2
03:08 9.8 °C 8.6 °C 1012.1 hPa NW 6.4 km/h 12.9 km/h 92 % 0 mm 0 W/m2
03:13 9.8 °C 8.6 °C 1012.1 hPa NW 6.4 km/h 14.5 km/h 92 % 0 mm 0 W/m2
03:18 9.7 °C 8.3 °C 1012.1 hPa NW 8 km/h 14.5 km/h 91 % 0 mm 0 W/m2
03:23 9.7 °C 8.3 °C 1012.1 hPa NW 6.4 km/h 12.9 km/h 91 % 0 mm 0 W/m2
03:28 9.7 °C 8.3 °C 1012.1 hPa NW 6.4 km/h 12.9 km/h 91 % 0 mm 0 W/m2
03:33 9.7 °C 8.3 °C 1011.7 hPa NW 4.8 km/h 12.9 km/h 91 % 0 mm 0 W/m2
03:38 9.7 °C 8.3 °C 1011.7 hPa NW 6.4 km/h 14.5 km/h 91 % 0 mm 0 W/m2
03:43 9.6 °C 8.2 °C 1011.7 hPa NW 8 km/h 14.5 km/h 91 % 0 mm 0 W/m2
03:48 9.6 °C 8.2 °C 1011.7 hPa NW 8 km/h 14.5 km/h 91 % 0 mm 0 W/m2
03:53 9.6 °C 8.2 °C 1011.7 hPa NW 6.4 km/h 12.9 km/h 91 % 0 mm 0 W/m2
03:58 9.6 °C 8.2 °C 1011.7 hPa NW 8 km/h 17.7 km/h 91 % 0 mm 0 W/m2
04:03 9.6 °C 8.2 °C 1011.7 hPa WNW 8 km/h 17.7 km/h 91 % 0 mm 0 W/m2
04:08 9.5 °C 7.9 °C 1011.7 hPa NW 8 km/h 14.5 km/h 90 % 0 mm 0 W/m2
04:13 9.5 °C 7.9 °C 1011.7 hPa NW 8 km/h 12.9 km/h 90 % 0 mm 0 W/m2
04:19 9.5 °C 7.9 °C 1011.7 hPa NW 8 km/h 17.7 km/h 90 % 0 mm 0 W/m2
04:21 9.5 °C 7.9 °C 1011.7 hPa NW 8 km/h 17.7 km/h 90 % 0 mm 0 W/m2
04:26 9.5 °C 7.9 °C 1011.7 hPa WNW 6.4 km/h 11.3 km/h 90 % 0 mm 0 W/m2
04:31 9.4 °C 7.8 °C 1011.7 hPa WNW 8 km/h 11.3 km/h 90 % 0 mm 0 W/m2
04:36 9.4 °C 7.8 °C 1011.7 hPa WNW 8 km/h 12.9 km/h 90 % 0 mm 0 W/m2
04:41 9.5 °C 7.9 °C 1011.7 hPa WNW 8 km/h 17.7 km/h 90 % 0 mm 0 W/m2
04:46 9.5 °C 7.9 °C 1011.7 hPa WNW 6.4 km/h 17.7 km/h 90 % 0 mm 0 W/m2
04:51 9.5 °C 7.9 °C 1011.7 hPa NW 8 km/h 14.5 km/h 90 % 0 mm 0 W/m2
05:01 9.6 °C 8.1 °C 1011.4 hPa NW 9.7 km/h 16.1 km/h 90 % 0 mm 0 W/m2
05:06 9.6 °C 8.1 °C 1011.7 hPa NW 8 km/h 16.1 km/h 90 % 0 mm 0 W/m2
05:11 9.6 °C 8.1 °C 1011.4 hPa NW 8 km/h 16.1 km/h 90 % 0 mm 0 W/m2
05:16 9.7 °C 8.1 °C 1011.4 hPa NW 9.7 km/h 16.1 km/h 90 % 0 mm 0 W/m2
05:21 9.7 °C 8 °C 1011.4 hPa NW 9.7 km/h 16.1 km/h 89 % 0 mm 0 W/m2
05:26 9.7 °C 8 °C 1011.4 hPa NW 9.7 km/h 19.3 km/h 89 % 0 mm 0 W/m2
05:31 9.7 °C 8 °C 1011.4 hPa NW 9.7 km/h 19.3 km/h 89 % 0 mm 0 W/m2
05:36 9.7 °C 8 °C 1011.4 hPa NW 9.7 km/h 17.7 km/h 89 % 0 mm 0 W/m2
05:41 9.7 °C 8 °C 1011.4 hPa NW 9.7 km/h 19.3 km/h 89 % 0 mm 0 W/m2
05:46 9.8 °C 8.1 °C 1011.1 hPa NW 9.7 km/h 19.3 km/h 89 % 0 mm 0 W/m2
05:51 9.8 °C 8.1 °C 1011.1 hPa NW 9.7 km/h 17.7 km/h 89 % 0 mm 0 W/m2
05:56 9.8 °C 8.1 °C 1011.1 hPa NW 9.7 km/h 16.1 km/h 89 % 0 mm 0 W/m2
06:06 9.8 °C 8.1 °C 1011.4 hPa NW 8 km/h 16.1 km/h 89 % 0 mm 0 W/m2
06:11 9.8 °C 8.1 °C 1011.4 hPa NW 6.4 km/h 16.1 km/h 89 % 0 mm 0 W/m2
06:16 9.8 °C 8.1 °C 1011.4 hPa NW 8 km/h 14.5 km/h 89 % 0 mm 0 W/m2
06:21 9.8 °C 8.1 °C 1011.4 hPa NW 9.7 km/h 16.1 km/h 89 % 0 mm 0 W/m2
06:27 9.8 °C 8.1 °C 1011.4 hPa WNW 8 km/h 16.1 km/h 89 % 0 mm 0 W/m2
06:32 9.8 °C 8.1 °C 1011.4 hPa NW 6.4 km/h 16.1 km/h 89 % 0 mm 0 W/m2
06:37 9.8 °C 8.1 °C 1011.7 hPa NW 4.8 km/h 14.5 km/h 89 % 0 mm 0 W/m2
06:42 9.8 °C 8.2 °C 1011.4 hPa NW 8 km/h 24.1 km/h 90 % 0.25 mm 0 W/m2
06:47 9.8 °C 8.2 °C 1011.7 hPa NW 11.3 km/h 24.1 km/h 90 % 0.25 mm 0 W/m2
06:52 9.8 °C 8.2 °C 1011.7 hPa NW 9.7 km/h 17.7 km/h 90 % 0.25 mm 0 W/m2
06:57 9.8 °C 8.2 °C 1011.7 hPa NW 9.7 km/h 16.1 km/h 90 % 0.25 mm 5 W/m2
07:02 9.8 °C 8.2 °C 1011.7 hPa NW 9.7 km/h 14.5 km/h 90 % 0.25 mm 5 W/m2
07:07 9.8 °C 8.2 °C 1011.7 hPa NW 8 km/h 14.5 km/h 90 % 0.25 mm 5 W/m2
07:12 9.8 °C 8.2 °C 1011.7 hPa NW 9.7 km/h 19.3 km/h 90 % 0.25 mm 7 W/m2
07:17 9.8 °C 8.2 °C 1011.7 hPa NW 9.7 km/h 19.3 km/h 90 % 0.25 mm 7 W/m2
07:22 9.8 °C 8.2 °C 1011.7 hPa NW 8 km/h 20.9 km/h 90 % 0.25 mm 9 W/m2
07:27 9.8 °C 8.4 °C 1011.7 hPa NW 6.4 km/h 20.9 km/h 91 % 0.25 mm 11 W/m2
07:32 9.9 °C 8.5 °C 1011.7 hPa NW 6.4 km/h 17.7 km/h 91 % 0.25 mm 18 W/m2
07:37 9.9 °C 8.3 °C 1011.7 hPa NW 8 km/h 16.1 km/h 90 % 0.25 mm 21 W/m2
07:42 9.9 °C 8.5 °C 1011.7 hPa NW 6.4 km/h 16.1 km/h 91 % 0 mm 21 W/m2
07:47 9.9 °C 8.5 °C 1011.7 hPa NW 6.4 km/h 16.1 km/h 91 % 0 mm 25 W/m2
07:52 10 °C 8.4 °C 1011.7 hPa NNW 8 km/h 17.7 km/h 90 % 0 mm 40 W/m2
07:57 10.1 °C 8.6 °C 1011.7 hPa NW 8 km/h 17.7 km/h 90 % 0 mm 42 W/m2
08:02 10.1 °C 8.6 °C 1011.7 hPa NNW 8 km/h 17.7 km/h 90 % 0 mm 49 W/m2
08:07 10.2 °C 8.6 °C 1011.7 hPa NNW 9.7 km/h 22.5 km/h 90 % 0 mm 35 W/m2
08:12 10.2 °C 8.4 °C 1012.1 hPa NNW 9.7 km/h 22.5 km/h 89 % 0 mm 33 W/m2
08:17 10.2 °C 8.4 °C 1012.1 hPa NNW 8 km/h 17.7 km/h 89 % 0 mm 28 W/m2
08:22 10.2 °C 8.4 °C 1012.1 hPa NNW 8 km/h 16.1 km/h 89 % 0 mm 33 W/m2
08:27 10.2 °C 8.4 °C 1012.1 hPa NNW 8 km/h 17.7 km/h 89 % 0 mm 47 W/m2
08:32 10.3 °C 8.6 °C 1012.1 hPa NNW 9.7 km/h 20.9 km/h 89 % 0 mm 67 W/m2
08:37 10.3 °C 8.6 °C 1012.1 hPa NNW 11.3 km/h 20.9 km/h 89 % 0 mm 79 W/m2
08:42 10.4 °C 8.5 °C 1012.1 hPa NNW 11.3 km/h 20.9 km/h 88 % 0 mm 91 W/m2
08:47 10.4 °C 8.5 °C 1012.1 hPa NNW 9.7 km/h 24.1 km/h 88 % 0 mm 97 W/m2
08:52 10.5 °C 8.6 °C 1012.1 hPa NNW 9.7 km/h 24.1 km/h 88 % 0 mm 127 W/m2
08:57 10.6 °C 8.7 °C 1012.1 hPa NNW 9.7 km/h 19.3 km/h 88 % 0 mm 114 W/m2
09:02 10.7 °C 8.6 °C 1012.4 hPa NNW 9.7 km/h 19.3 km/h 87 % 0 mm 139 W/m2
09:07 10.8 °C 8.7 °C 1012.4 hPa NNW 9.7 km/h 17.7 km/h 87 % 0 mm 121 W/m2
09:12 10.8 °C 8.6 °C 1012.4 hPa NNW 9.7 km/h 19.3 km/h 86 % 0 mm 88 W/m2
09:17 10.9 °C 8.7 °C 1012.4 hPa NNW 9.7 km/h 20.9 km/h 86 % 0 mm 123 W/m2
09:22 10.9 °C 8.7 °C 1012.4 hPa NNW 9.7 km/h 20.9 km/h 86 % 0 mm 105 W/m2
09:28 10.9 °C 8.7 °C 1012.4 hPa NNW 11.3 km/h 20.9 km/h 86 % 0 mm 84 W/m2
09:33 10.9 °C 8.7 °C 1012.4 hPa NNW 11.3 km/h 19.3 km/h 86 % 0 mm 91 W/m2
09:38 10.9 °C 8.7 °C 1012.4 hPa NNW 8 km/h 17.7 km/h 86 % 0 mm 116 W/m2
09:43 11 °C 8.6 °C 1012.4 hPa NNW 8 km/h 17.7 km/h 85 % 0 mm 243 W/m2
09:48 11.2 °C 8.9 °C 1012.4 hPa NNW 8 km/h 17.7 km/h 86 % 0 mm 221 W/m2
09:53 11.4 °C 8.9 °C 1012.4 hPa NNW 8 km/h 17.7 km/h 85 % 0 mm 499 W/m2
09:58 11.8 °C 9.3 °C 1012.4 hPa NNW 8 km/h 17.7 km/h 85 % 0 mm 615 W/m2
10:03 12.2 °C 9.6 °C 1012.4 hPa NNW 8 km/h 16.1 km/h 84 % 0 mm 276 W/m2
10:08 12.4 °C 9.6 °C 1012.4 hPa NNW 9.7 km/h 19.3 km/h 83 % 0 mm 202 W/m2
10:13 12.5 °C 9.5 °C 1012.4 hPa NNW 9.7 km/h 19.3 km/h 82 % 0 mm 163 W/m2
10:18 12.4 °C 9.2 °C 1012.4 hPa NNW 9.7 km/h 19.3 km/h 81 % 0 mm 162 W/m2
10:23 12.4 °C 9.2 °C 1012.4 hPa NNW 11.3 km/h 19.3 km/h 81 % 0 mm 329 W/m2
10:28 12.5 °C 9.5 °C 1012.4 hPa NNW 9.7 km/h 17.7 km/h 82 % 0 mm 330 W/m2
10:33 12.6 °C 9.4 °C 1012.4 hPa NNW 9.7 km/h 17.7 km/h 81 % 0 mm 311 W/m2
10:37 12.6 °C 9.4 °C 1012.4 hPa North 8 km/h 16.1 km/h 81 % 0 mm 575 W/m2
10:42 12.8 °C 9.2 °C 1012.4 hPa NNE 9.7 km/h 24.1 km/h 79 % 0 mm 752 W/m2
10:47 13.2 °C 9.8 °C 1012.4 hPa North 11.3 km/h 24.1 km/h 80 % 0 mm 582 W/m2
10:52 13.4 °C 9.4 °C 1012.4 hPa North 11.3 km/h 19.3 km/h 77 % 0 mm 782 W/m2
10:57 13.8 °C 9.8 °C 1012.4 hPa North 11.3 km/h 20.9 km/h 77 % 0 mm 882 W/m2
11:02 14 °C 9.4 °C 1012.4 hPa NNW 11.3 km/h 20.9 km/h 74 % 0 mm 206 W/m2
11:07 13.8 °C 9.1 °C 1012.4 hPa NNW 11.3 km/h 20.9 km/h 73 % 0 mm 253 W/m2
11:12 13.7 °C 9.3 °C 1012.4 hPa NNW 9.7 km/h 20.9 km/h 75 % 0 mm 278 W/m2
11:17 13.6 °C 9.2 °C 1012.1 hPa North 8 km/h 16.1 km/h 75 % 0 mm 239 W/m2
11:22 13.3 °C 9.2 °C 1012.1 hPa NNE 8 km/h 19.3 km/h 76 % 0 mm 283 W/m2
11:27 13.3 °C 9.2 °C 1012.4 hPa NNE 9.7 km/h 19.3 km/h 76 % 0 mm 239 W/m2
11:32 13.1 °C 8.8 °C 1012.1 hPa NNE 9.7 km/h 20.9 km/h 75 % 0 mm 209 W/m2
11:37 13.1 °C 8.9 °C 1012.4 hPa NNE 9.7 km/h 20.9 km/h 76 % 0 mm 171 W/m2
11:42 13 °C 8.9 °C 1012.1 hPa North 11.3 km/h 20.9 km/h 76 % 0 mm 216 W/m2
11:47 13 °C 8.9 °C 1012.1 hPa NNE 11.3 km/h 20.9 km/h 76 % 0 mm 299 W/m2
11:52 12.9 °C 8.8 °C 1012.1 hPa NNE 11.3 km/h 20.9 km/h 76 % 0 mm 311 W/m2
11:58 12.9 °C 8.8 °C 1012.1 hPa NNE 11.3 km/h 25.7 km/h 76 % 0 mm 297 W/m2
12:03 13 °C 8.9 °C 1012.1 hPa North 11.3 km/h 25.7 km/h 76 % 0 mm 294 W/m2
12:08 13.1 °C 8.9 °C 1012.1 hPa North 9.7 km/h 17.7 km/h 76 % 0 mm 327 W/m2
12:13 13.2 °C 8.9 °C 1012.1 hPa North 9.7 km/h 19.3 km/h 75 % 0 mm 325 W/m2
12:18 13.4 °C 9.3 °C 1012.1 hPa North 9.7 km/h 19.3 km/h 76 % 0 mm 295 W/m2
12:23 13.4 °C 9.1 °C 1012.1 hPa NNE 9.7 km/h 20.9 km/h 75 % 0 mm 304 W/m2
12:28 13.6 °C 9.1 °C 1012.1 hPa North 11.3 km/h 20.9 km/h 74 % 0 mm 355 W/m2
12:33 13.7 °C 9.2 °C 1012.1 hPa NNW 11.3 km/h 19.3 km/h 74 % 0 mm 563 W/m2
12:38 13.9 °C 9.1 °C 1012.1 hPa North 9.7 km/h 17.7 km/h 73 % 0 mm 605 W/m2
12:43 14.1 °C 9.1 °C 1011.7 hPa North 11.3 km/h 19.3 km/h 72 % 0 mm 633 W/m2
12:48 14.4 °C 9.4 °C 1011.7 hPa North 11.3 km/h 19.3 km/h 72 % 0 mm 895 W/m2
12:53 14.6 °C 9.4 °C 1011.7 hPa NNE 8 km/h 17.7 km/h 71 % 0 mm 274 W/m2
12:58 14.8 °C 9.2 °C 1011.7 hPa North 8 km/h 17.7 km/h 69 % 0 mm 218 W/m2
13:03 14.6 °C 8.8 °C 1011.7 hPa North 9.7 km/h 17.7 km/h 68 % 0 mm 195 W/m2
13:08 14.2 °C 8.6 °C 1011.7 hPa North 11.3 km/h 22.5 km/h 69 % 0 mm 213 W/m2
13:13 13.9 °C 8.1 °C 1011.7 hPa North 12.9 km/h 22.5 km/h 68 % 0 mm 309 W/m2
13:18 13.8 °C 8.4 °C 1011.7 hPa NNE 11.3 km/h 19.3 km/h 70 % 0 mm 564 W/m2
13:23 13.8 °C 8.4 °C 1011.7 hPa NNE 11.3 km/h 17.7 km/h 70 % 0 mm 441 W/m2
13:28 14 °C 8.4 °C 1011.7 hPa NNE 11.3 km/h 20.9 km/h 69 % 0 mm 380 W/m2
13:33 14 °C 8.4 °C 1011.4 hPa NNE 12.9 km/h 20.9 km/h 69 % 0 mm 359 W/m2
13:38 14.1 °C 8.7 °C 1011.4 hPa North 11.3 km/h 20.9 km/h 70 % 0 mm 346 W/m2
13:43 14.2 °C 8.6 °C 1011.4 hPa North 8 km/h 20.9 km/h 69 % 0 mm 420 W/m2
13:48 14.4 °C 8.3 °C 1011.4 hPa NNE 8 km/h 20.9 km/h 67 % 0 mm 485 W/m2
13:53 14.3 °C 7.8 °C 1011.4 hPa NNE 11.3 km/h 20.9 km/h 65 % 0 mm 341 W/m2
13:58 14.3 °C 8.1 °C 1011.4 hPa NNE 11.3 km/h 20.9 km/h 66 % 0 mm 454 W/m2
14:03 14.5 °C 8.2 °C 1011.4 hPa North 9.7 km/h 19.3 km/h 66 % 0 mm 415 W/m2
14:08 14.6 °C 8.1 °C 1011.4 hPa North 11.3 km/h 19.3 km/h 65 % 0 mm 316 W/m2
14:13 14.9 °C 8.4 °C 1011.4 hPa NNW 11.3 km/h 17.7 km/h 65 % 0 mm 752 W/m2
14:18 15.2 °C 7.9 °C 1011.1 hPa NNW 11.3 km/h 19.3 km/h 62 % 0 mm 292 W/m2
14:20 15.3 °C 7.8 °C 1011.1 hPa NNW 12.9 km/h 24.1 km/h 61 % 0 mm 292 W/m2
14:25 15.3 °C 8.1 °C 1011.1 hPa NNW 11.3 km/h 24.1 km/h 62 % 0 mm 309 W/m2
14:31 15.2 °C 7.9 °C 1011.1 hPa NNW 9.7 km/h 19.3 km/h 62 % 0 mm 202 W/m2
14:36 15.1 °C 7.9 °C 1011.1 hPa NNW 9.7 km/h 19.3 km/h 62 % 0 mm 160 W/m2
14:41 15.1 °C 8.1 °C 1011.1 hPa NNW 9.7 km/h 19.3 km/h 63 % 0 mm 547 W/m2
14:46 15.3 °C 8.1 °C 1011.1 hPa NNW 9.7 km/h 19.3 km/h 62 % 0 mm 715 W/m2
14:51 15.6 °C 8.1 °C 1011.1 hPa NNW 9.7 km/h 17.7 km/h 61 % 0 mm 733 W/m2
14:56 15.8 °C 8.1 °C 1011.1 hPa NNW 9.7 km/h 17.7 km/h 60 % 0 mm 728 W/m2
15:01 16.1 °C 8.3 °C 1011.1 hPa NNW 9.7 km/h 19.3 km/h 60 % 0 mm 113 W/m2
15:06 15.7 °C 7.4 °C 1011.1 hPa North 9.7 km/h 17.7 km/h 58 % 0 mm 134 W/m2
15:11 15.4 °C 7.2 °C 1011.1 hPa NNE 9.7 km/h 17.7 km/h 58 % 0 mm 633 W/m2
15:16 15.4 °C 7.2 °C 1011.1 hPa North 9.7 km/h 19.3 km/h 58 % 0 mm 251 W/m2
15:21 15.6 °C 7.6 °C 1011.1 hPa North 8 km/h 19.3 km/h 59 % 0 mm 279 W/m2
15:26 15.7 °C 7.9 °C 1011.1 hPa North 8 km/h 17.7 km/h 60 % 0 mm 733 W/m2
15:31 15.7 °C 7.4 °C 1011.1 hPa North 9.7 km/h 17.7 km/h 58 % 0 mm 188 W/m2
15:36 15.3 °C 7.3 °C 1011.1 hPa NNE 11.3 km/h 19.3 km/h 59 % 0 mm 162 W/m2
15:41 15 °C 7.6 °C 1011.1 hPa NNE 11.3 km/h 19.3 km/h 61 % 0 mm 142 W/m2
15:46 14.9 °C 7.9 °C 1011.1 hPa NNE 8 km/h 19.3 km/h 63 % 0 mm 563 W/m2
15:51 14.9 °C 8.4 °C 1011.1 hPa NE 8 km/h 19.3 km/h 65 % 0 mm 529 W/m2
15:56 15.1 °C 8.3 °C 1010.7 hPa NNE 9.7 km/h 19.3 km/h 64 % 0 mm 591 W/m2
16:01 15.3 °C 8.5 °C 1011.1 hPa NNE 9.7 km/h 17.7 km/h 64 % 0 mm 615 W/m2
16:06 15.5 °C 8.7 °C 1010.7 hPa North 9.7 km/h 19.3 km/h 64 % 0 mm 200 W/m2
16:11 15.5 °C 8.2 °C 1011.1 hPa North 9.7 km/h 19.3 km/h 62 % 0 mm 160 W/m2
16:16 15.3 °C 7.8 °C 1010.7 hPa NNE 9.7 km/h 19.3 km/h 61 % 0 mm 130 W/m2
16:21 15 °C 8 °C 1010.7 hPa NNE 11.3 km/h 20.9 km/h 63 % 0 mm 134 W/m2
16:26 14.7 °C 8.4 °C 1011.1 hPa NNE 11.3 km/h 20.9 km/h 66 % 0 mm 149 W/m2
16:31 14.4 °C 8.6 °C 1011.1 hPa NE 9.7 km/h 19.3 km/h 68 % 0 mm 123 W/m2
16:36 14.2 °C 8.4 °C 1011.1 hPa NNE 11.3 km/h 17.7 km/h 68 % 0 mm 105 W/m2
16:41 14.1 °C 8.5 °C 1011.1 hPa NNE 9.7 km/h 16.1 km/h 69 % 0 mm 107 W/m2
16:46 14 °C 8.6 °C 1011.1 hPa NNE 9.7 km/h 16.1 km/h 70 % 0 mm 102 W/m2
16:51 13.9 °C 8.7 °C 1010.7 hPa NE 9.7 km/h 17.7 km/h 71 % 0 mm 373 W/m2
16:56 14 °C 9.1 °C 1011.1 hPa NE 9.7 km/h 19.3 km/h 72 % 0 mm 255 W/m2
17:01 14.1 °C 9.1 °C 1011.1 hPa NE 8 km/h 19.3 km/h 72 % 0 mm 83 W/m2
17:06 14.2 °C 9 °C 1011.1 hPa NNE 4.8 km/h 17.7 km/h 71 % 0 mm 151 W/m2
17:11 14.2 °C 9 °C 1011.1 hPa NNE 4.8 km/h 17.7 km/h 71 % 0 mm 121 W/m2
17:16 14.2 °C 9 °C 1011.1 hPa North 6.4 km/h 16.1 km/h 71 % 0 mm 102 W/m2
17:21 14.2 °C 8.6 °C 1011.1 hPa NNE 9.7 km/h 16.1 km/h 69 % 0 mm 172 W/m2
17:26 14.3 °C 8.7 °C 1011.1 hPa North 9.7 km/h 19.3 km/h 69 % 0 mm 339 W/m2
17:31 14.5 °C 8.9 °C 1010.7 hPa North 9.7 km/h 19.3 km/h 69 % 0 mm 214 W/m2
17:36 14.7 °C 9.1 °C 1011.1 hPa NNW 8 km/h 17.7 km/h 69 % 0 mm 121 W/m2
17:41 14.7 °C 8.8 °C 1011.1 hPa NNW 9.7 km/h 20.9 km/h 68 % 0 mm 132 W/m2
17:46 14.7 °C 9.1 °C 1011.1 hPa NNW 9.7 km/h 20.9 km/h 69 % 0 mm 135 W/m2
17:51 14.6 °C 9.2 °C 1011.1 hPa NNW 8 km/h 20.9 km/h 70 % 0 mm 174 W/m2
17:56 14.4 °C 9.2 °C 1011.4 hPa North 8 km/h 20.9 km/h 71 % 0 mm 207 W/m2
18:01 14.2 °C 8.8 °C 1011.4 hPa NNE 9.7 km/h 20.9 km/h 70 % 0 mm 121 W/m2
18:06 13.9 °C 8.7 °C 1011.4 hPa NNE 11.3 km/h 29 km/h 71 % 0 mm 109 W/m2
18:11 13.7 °C 8.9 °C 1011.4 hPa NNE 11.3 km/h 29 km/h 73 % 0 mm 113 W/m2
18:17 13.4 °C 8.7 °C 1011.4 hPa NNE 9.7 km/h 19.3 km/h 73 % 0 mm 74 W/m2
18:22 13.2 °C 8.9 °C 1011.4 hPa North 11.3 km/h 19.3 km/h 75 % 0 mm 70 W/m2
18:27 13.1 °C 8.8 °C 1011.4 hPa NNE 9.7 km/h 19.3 km/h 75 % 0 mm 69 W/m2
18:32 13 °C 8.9 °C 1011.4 hPa North 8 km/h 17.7 km/h 76 % 0 mm 58 W/m2
18:37 12.9 °C 8.9 °C 1011.4 hPa NNE 9.7 km/h 17.7 km/h 77 % 0 mm 49 W/m2
18:42 12.7 °C 8.8 °C 1011.4 hPa NNE 11.3 km/h 24.1 km/h 77 % 0 mm 39 W/m2
18:47 12.6 °C 8.7 °C 1011.7 hPa North 12.9 km/h 24.1 km/h 77 % 0 mm 30 W/m2
18:52 12.4 °C 8.7 °C 1011.7 hPa North 11.3 km/h 20.9 km/h 78 % 0 mm 23 W/m2
18:57 12.3 °C 8.8 °C 1011.7 hPa North 9.7 km/h 19.3 km/h 79 % 0 mm 18 W/m2
19:02 12.2 °C 8.7 °C 1011.7 hPa North 9.7 km/h 19.3 km/h 79 % 0 mm 12 W/m2
19:07 12.2 °C 8.8 °C 1011.7 hPa North 11.3 km/h 16.1 km/h 80 % 0 mm 9 W/m2
19:12 12.1 °C 8.8 °C 1012.1 hPa North 8 km/h 16.1 km/h 80 % 0 mm 7 W/m2
19:17 12 °C 8.8 °C 1012.1 hPa North 6.4 km/h 14.5 km/h 81 % 0 mm 5 W/m2
19:22 11.9 °C 8.7 °C 1012.1 hPa North 4.8 km/h 14.5 km/h 81 % 0 mm 0 W/m2
19:27 11.8 °C 8.8 °C 1012.1 hPa North 6.4 km/h 16.1 km/h 82 % 0 mm 0 W/m2
19:32 11.7 °C 8.7 °C 1012.1 hPa North 8 km/h 16.1 km/h 82 % 0 mm 0 W/m2
19:37 11.7 °C 8.7 °C 1012.1 hPa North 8 km/h 16.1 km/h 82 % 0 mm 0 W/m2
19:42 11.6 °C 8.8 °C 1012.1 hPa North 9.7 km/h 17.7 km/h 83 % 0 mm 0 W/m2
19:47 11.6 °C 8.8 °C 1012.1 hPa NNW 9.7 km/h 17.7 km/h 83 % 0 mm 0 W/m2
19:57 11.4 °C 8.8 °C 1012.4 hPa North 6.4 km/h 14.5 km/h 84 % 0 mm 0 W/m2
20:02 11.4 °C 8.8 °C 1012.4 hPa NNW 6.4 km/h 14.5 km/h 84 % 0 mm 0 W/m2
20:07 11.3 °C 8.7 °C 1012.4 hPa NNW 6.4 km/h 12.9 km/h 84 % 0 mm 0 W/m2
20:12 11.2 °C 8.6 °C 1012.4 hPa NNW 6.4 km/h 14.5 km/h 84 % 0 mm 0 W/m2
20:17 11.2 °C 8.6 °C 1012.4 hPa NNW 4.8 km/h 14.5 km/h 84 % 0 mm 0 W/m2
20:22 11.1 °C 8.7 °C 1012.4 hPa NNW 4.8 km/h 12.9 km/h 85 % 0 mm 0 W/m2
20:27 11 °C 8.6 °C 1012.4 hPa NNW 4.8 km/h 11.3 km/h 85 % 0 mm 0 W/m2
20:37 10.8 °C 8.4 °C 1012.8 hPa NNW 4.8 km/h 11.3 km/h 85 % 0 mm 0 W/m2
20:42 10.8 °C 8.6 °C 1012.8 hPa NNW 3.2 km/h 14.5 km/h 86 % 0 mm 0 W/m2
20:47 10.7 °C 8.4 °C 1012.8 hPa NNW 4.8 km/h 14.5 km/h 86 % 0 mm 0 W/m2
20:52 10.6 °C 8.3 °C 1012.8 hPa NNW 4.8 km/h 12.9 km/h 86 % 0 mm 0 W/m2
20:57 10.6 °C 8.3 °C 1012.8 hPa NW 3.2 km/h 9.7 km/h 86 % 0 mm 0 W/m2
21:03 10.4 °C 8.2 °C 1012.8 hPa NW 1.6 km/h 4.8 km/h 86 % 0 mm 0 W/m2
21:08 10.3 °C 8.2 °C 1012.8 hPa NW 1.6 km/h 8 km/h 87 % 0 mm 0 W/m2
21:13 10.2 °C 8.1 °C 1012.8 hPa NW 3.2 km/h 8 km/h 87 % 0 mm 0 W/m2
21:18 10.1 °C 8.2 °C 1012.8 hPa NW 3.2 km/h 8 km/h 88 % 0 mm 0 W/m2
21:23 10 °C 8.1 °C 1012.8 hPa NW 3.2 km/h 8 km/h 88 % 0 mm 0 W/m2
21:28 9.9 °C 8 °C 1012.8 hPa NW 3.2 km/h 9.7 km/h 88 % 0 mm 0 W/m2
21:33 9.8 °C 7.9 °C 1012.8 hPa NW 3.2 km/h 9.7 km/h 88 % 0 mm 0 W/m2
21:38 9.7 °C 8 °C 1012.8 hPa NW 3.2 km/h 8 km/h 89 % 0 mm 0 W/m2
21:43 9.6 °C 7.9 °C 1012.8 hPa NW 3.2 km/h 8 km/h 89 % 0 mm 0 W/m2
21:48 9.6 °C 7.9 °C 1012.8 hPa NW 3.2 km/h 8 km/h 89 % 0 mm 0 W/m2
21:53 9.4 °C 7.8 °C 1012.8 hPa NW 1.6 km/h 6.4 km/h 90 % 0 mm 0 W/m2
21:58 9.4 °C 7.8 °C 1012.8 hPa NW 1.6 km/h 8 km/h 90 % 0 mm 0 W/m2
22:03 9.3 °C 7.7 °C 1012.8 hPa NW 1.6 km/h 9.7 km/h 90 % 0 mm 0 W/m2
22:08 9.3 °C 7.9 °C 1012.8 hPa NW 4.8 km/h 9.7 km/h 91 % 0 mm 0 W/m2
22:13 9.3 °C 7.9 °C 1012.8 hPa NW 4.8 km/h 9.7 km/h 91 % 0 mm 0 W/m2
22:18 9.2 °C 7.8 °C 1012.8 hPa WNW 3.2 km/h 8 km/h 91 % 0 mm 0 W/m2
22:23 9.2 °C 7.8 °C 1012.8 hPa WNW 3.2 km/h 8 km/h 91 % 0 mm 0 W/m2
22:28 9.2 °C 7.8 °C 1012.8 hPa WNW 3.2 km/h 9.7 km/h 91 % 0 mm 0 W/m2
22:33 9.2 °C 7.8 °C 1012.8 hPa NW 3.2 km/h 12.9 km/h 91 % 0 mm 0 W/m2
22:38 9.1 °C 7.9 °C 1012.8 hPa WNW 3.2 km/h 12.9 km/h 92 % 0 mm 0 W/m2
22:43 9.1 °C 7.9 °C 1012.8 hPa WNW 3.2 km/h 8 km/h 92 % 0 mm 0 W/m2
22:48 9.1 °C 7.9 °C 1012.8 hPa WNW 3.2 km/h 8 km/h 92 % 0 mm 0 W/m2
22:53 9.1 °C 7.9 °C 1012.8 hPa WNW 1.6 km/h 8 km/h 92 % 0 mm 0 W/m2
22:58 9.1 °C 7.9 °C 1013.1 hPa NW 3.2 km/h 9.7 km/h 92 % 0 mm 0 W/m2
23:03 9.1 °C 7.9 °C 1013.1 hPa NW 3.2 km/h 9.7 km/h 92 % 0 mm 0 W/m2
23:08 9.1 °C 7.9 °C 1012.8 hPa NW 1.6 km/h 8 km/h 92 % 0 mm 0 W/m2
23:13 9.1 °C 7.9 °C 1012.8 hPa Calm   6.4 km/h 92 % 0 mm 0 W/m2
23:18 8.9 °C 7.7 °C 1013.1 hPa Calm   6.4 km/h 92 % 0 mm 0 W/m2
23:23 8.9 °C 7.7 °C 1013.1 hPa Calm   8 km/h 92 % 0 mm 0 W/m2
23:28 8.8 °C 7.6 °C 1013.1 hPa NW 1.6 km/h 8 km/h 92 % 0 mm 0 W/m2
23:34 8.8 °C 7.6 °C 1013.1 hPa Calm   3.2 km/h 92 % 0 mm 0 W/m2
23:38 8.8 °C 7.6 °C 1013.1 hPa NW 1.6 km/h 6.4 km/h 92 % 0 mm 0 W/m2
23:43 8.8 °C 7.7 °C 1013.1 hPa NW 1.6 km/h 6.4 km/h 93 % 0 mm 0 W/m2
23:48 8.8 °C 7.7 °C 1013.1 hPa Calm   6.4 km/h 93 % 0 mm 0 W/m2
23:54 8.8 °C 7.7 °C 1013.1 hPa Calm   3.2 km/h 93 % 0 mm 0 W/m2
23:59 8.8 °C 7.7 °C 1013.1 hPa Calm   3.2 km/h 93 % 0 mm 0 W/m2
Delerius-Weather
Compliments of Weather Underground - 2.25 mb

Data updates at regular intervals.